T7ZEM SPZO-SLUY

Flight info

Callsign T7ZEM
Flight time 1h 58m
Altitude 29000
Route ILMOX UV11 JUL UP408 VURUS/N0314F300 UP408 BOGUB DCT UNI
Aircraft TBM8/L-SDFGRWY/S

Departure

Time 2026-04-24 19:02
Airport Alejandro Velasco Astete International Airport (SPZO)

Arrival

Time 2026-04-24 21:00
Airport Joya Andina International Airport (SLUY)
Time Latitude Longitude Altitude Speed Heading
2026-04-24 18:56 -13.53648 -71.94493 10605 ft 0 kts 276°
2026-04-24 18:57 -13.53647 -71.94508 10602 ft 1 kts 275°
2026-04-24 18:57 -13.53647 -71.94513 10603 ft 4 kts 274°
2026-04-24 18:58 -13.53640 -71.94590 10611 ft 18 kts 280°
2026-04-24 18:58 -13.53621 -71.94758 10618 ft 30 kts 278°
2026-04-24 18:58 -13.53598 -71.94982 10629 ft 31 kts 276°
2026-04-24 18:58 -13.53578 -71.95191 10638 ft 27 kts 278°
2026-04-24 18:59 -13.53560 -71.95367 10648 ft 22 kts 276°
2026-04-24 18:59 -13.53491 -71.95451 10651 ft 14 kts 349°
2026-04-24 18:59 -13.53481 -71.95451 10654 ft 0 kts
2026-04-24 18:59 -13.53480 -71.95451 10653 ft 0 kts
2026-04-24 19:00 -13.53470 -71.95447 10653 ft 4 kts 24°
2026-04-24 19:00 -13.53434 -71.95409 10648 ft 11 kts 61°
2026-04-24 19:00 -13.53429 -71.95303 10643 ft 23 kts 95°
2026-04-24 19:00 -13.53460 -71.95003 10632 ft 62 kts 96°
2026-04-24 19:01 -13.53518 -71.94432 10603 ft 99 kts 96°
2026-04-24 19:01 -13.53606 -71.93623 10584 ft 126 kts 95°
2026-04-24 19:01 -13.53699 -71.92655 10702 ft 145 kts 94°
2026-04-24 19:01 -13.53816 -71.91537 10923 ft 171 kts 96°
2026-04-24 19:02 -13.53907 -71.90726 11293 ft 165 kts 92°
2026-04-24 19:02 -13.54224 -71.89214 11915 ft 164 kts 104°
2026-04-24 19:02 -13.54536 -71.88081 12337 ft 166 kts 104°
2026-04-24 19:02 -13.55015 -71.87001 12975 ft 167 kts 117°
2026-04-24 19:03 -13.55438 -71.85908 13524 ft 166 kts 111°
2026-04-24 19:03 -13.55820 -71.84778 13814 ft 168 kts 109°
2026-04-24 19:03 -13.56236 -71.83650 13993 ft 169 kts 108°
2026-04-24 19:03 -13.56662 -71.82538 14232 ft 170 kts 111°
2026-04-24 19:04 -13.57115 -71.81391 14599 ft 172 kts 112°
2026-04-24 19:04 -13.57552 -71.80273 14961 ft 171 kts 109°
2026-04-24 19:04 -13.57974 -71.79133 15302 ft 171 kts 110°
2026-04-24 19:04 -13.58415 -71.78000 15636 ft 171 kts 111°
2026-04-24 19:05 -13.58863 -71.76867 15971 ft 171 kts 111°
2026-04-24 19:05 -13.59400 -71.75775 16269 ft 175 kts 124°
2026-04-24 19:05 -13.60100 -71.74715 16500 ft 183 kts 122°
2026-04-24 19:05 -13.60788 -71.73614 16857 ft 183 kts 122°
2026-04-24 19:06 -13.61483 -71.72507 17158 ft 186 kts 123°
2026-04-24 19:06 -13.62302 -71.71511 17525 ft 185 kts 134°
2026-04-24 19:06 -13.63201 -71.70559 17834 ft 187 kts 133°
2026-04-24 19:06 -13.64101 -71.69583 18202 ft 188 kts 133°
2026-04-24 19:07 -13.64920 -71.68548 18574 ft 186 kts 121°
2026-04-24 19:07 -13.65579 -71.67400 18846 ft 188 kts 121°
2026-04-24 19:07 -13.66035 -71.66635 18964 ft 192 kts 122°
2026-04-24 19:07 -13.66994 -71.65047 19241 ft 199 kts 122°
2026-04-24 19:08 -13.67730 -71.63821 19456 ft 203 kts 121°
2026-04-24 19:08 -13.68479 -71.62565 19665 ft 209 kts 121°
2026-04-24 19:08 -13.69140 -71.61249 19875 ft 212 kts 109°
2026-04-24 19:08 -13.69613 -71.59800 20102 ft 215 kts 109°
2026-04-24 19:09 -13.70111 -71.58339 20345 ft 218 kts 109°
2026-04-24 19:09 -13.70697 -71.56896 20586 ft 221 kts 122°
2026-04-24 19:09 -13.71617 -71.55616 20868 ft 224 kts 127°
2026-04-24 19:09 -13.72551 -71.54324 21105 ft 226 kts 126°
2026-04-24 19:10 -13.73479 -71.53007 21344 ft 228 kts 126°
2026-04-24 19:10 -13.74414 -71.51683 21590 ft 229 kts 126°
2026-04-24 19:10 -13.75468 -71.50459 21839 ft 231 kts 141°
2026-04-24 19:10 -13.76762 -71.49473 22089 ft 232 kts 142°
2026-04-24 19:11 -13.78034 -71.48488 22336 ft 233 kts 141°
2026-04-24 19:11 -13.79319 -71.47471 22557 ft 233 kts 141°
2026-04-24 19:11 -13.80610 -71.46457 22809 ft 234 kts 141°
2026-04-24 19:11 -13.81904 -71.45444 23061 ft 234 kts 142°
2026-04-24 19:12 -13.83199 -71.44433 23320 ft 234 kts 141°
2026-04-24 19:12 -13.84489 -71.43420 23577 ft 233 kts 141°
2026-04-24 19:12 -13.85782 -71.42407 23799 ft 234 kts 140°
2026-04-24 19:12 -13.87077 -71.41390 23997 ft 235 kts 140°
2026-04-24 19:13 -13.87948 -71.40705 24065 ft 240 kts 141°
2026-04-24 19:13 -13.89738 -71.39309 24214 ft 248 kts 141°
2026-04-24 19:13 -13.91122 -71.38226 24304 ft 252 kts 140°
2026-04-24 19:13 -13.92530 -71.37123 24418 ft 256 kts 140°
2026-04-24 19:14 -13.93958 -71.36005 24529 ft 259 kts 141°
2026-04-24 19:14 -13.95400 -71.34876 24645 ft 262 kts 140°
2026-04-24 19:14 -13.96857 -71.33732 24758 ft 265 kts 141°
2026-04-24 19:14 -13.98328 -71.32578 24872 ft 267 kts 141°
2026-04-24 19:15 -13.99788 -71.31433 24980 ft 268 kts 141°
2026-04-24 19:15 -14.01276 -71.30265 25096 ft 270 kts 141°
2026-04-24 19:15 -14.02768 -71.29094 25207 ft 270 kts 141°
2026-04-24 19:15 -14.04266 -71.27918 25323 ft 271 kts 141°
2026-04-24 19:16 -14.07272 -71.25558 25550 ft 272 kts 141°
2026-04-24 19:16 -14.08779 -71.24375 25663 ft 273 kts 141°
2026-04-24 19:16 -14.10285 -71.23188 25775 ft 272 kts 141°
2026-04-24 19:17 -14.11793 -71.22005 25891 ft 272 kts 141°
2026-04-24 19:17 -14.13282 -71.20837 26005 ft 273 kts 141°
2026-04-24 19:17 -14.14795 -71.19648 26119 ft 274 kts 141°
2026-04-24 19:17 -14.16312 -71.18458 26234 ft 274 kts 141°
2026-04-24 19:18 -14.17827 -71.17260 26327 ft 274 kts 141°
2026-04-24 19:18 -14.19344 -71.16067 26442 ft 274 kts 141°
2026-04-24 19:18 -14.20861 -71.14876 26583 ft 274 kts 141°
2026-04-24 19:18 -14.22375 -71.13685 26713 ft 274 kts 141°
2026-04-24 19:19 -14.23890 -71.12491 26821 ft 274 kts 141°
2026-04-24 19:19 -14.25407 -71.11300 26938 ft 275 kts 141°
2026-04-24 19:19 -14.26928 -71.10102 27056 ft 275 kts 141°
2026-04-24 19:19 -14.28430 -71.08920 27175 ft 276 kts 141°
2026-04-24 19:20 -14.29955 -71.07720 27294 ft 276 kts 141°
2026-04-24 19:20 -14.31481 -71.06517 27414 ft 276 kts 141°
2026-04-24 19:20 -14.33010 -71.05314 27536 ft 276 kts 141°
2026-04-24 19:20 -14.34537 -71.04110 27655 ft 276 kts 141°
2026-04-24 19:21 -14.36059 -71.02909 27776 ft 275 kts 142°
2026-04-24 19:21 -14.37580 -71.01710 27896 ft 275 kts 141°
2026-04-24 19:21 -14.39097 -71.00515 28050 ft 274 kts 141°
2026-04-24 19:21 -14.40594 -70.99334 28169 ft 275 kts 141°
2026-04-24 19:22 -14.41615 -70.98528 28249 ft 274 kts 141°
2026-04-24 19:22 -14.43619 -70.96949 28392 ft 273 kts 141°
2026-04-24 19:22 -14.45127 -70.95759 28519 ft 273 kts 141°
2026-04-24 19:22 -14.46638 -70.94568 28644 ft 274 kts 141°
2026-04-24 19:23 -14.48153 -70.93373 28769 ft 274 kts 141°
2026-04-24 19:23 -14.49669 -70.92176 28895 ft 274 kts 141°
2026-04-24 19:23 -14.51184 -70.90979 29020 ft 274 kts 141°
2026-04-24 19:23 -14.52708 -70.89776 29038 ft 278 kts 141°
2026-04-24 19:24 -14.54235 -70.88573 29034 ft 282 kts 141°
2026-04-24 19:24 -14.55802 -70.87337 29037 ft 285 kts 141°
2026-04-24 19:24 -14.57384 -70.86090 29040 ft 287 kts 141°
2026-04-24 19:24 -14.58978 -70.84832 29043 ft 290 kts 142°
2026-04-24 19:25 -14.60582 -70.83561 29041 ft 291 kts 141°
2026-04-24 19:25 -14.62199 -70.82289 29041 ft 293 kts 141°
2026-04-24 19:25 -14.63822 -70.81008 29041 ft 294 kts 141°
2026-04-24 19:25 -14.65443 -70.79725 29042 ft 295 kts 142°
2026-04-24 19:26 -14.67073 -70.78436 29044 ft 295 kts 141°
2026-04-24 19:26 -14.68707 -70.77145 29028 ft 296 kts 142°
2026-04-24 19:26 -14.70320 -70.75871 29028 ft 296 kts 141°
2026-04-24 19:26 -14.71956 -70.74577 29027 ft 296 kts 141°
2026-04-24 19:27 -14.73593 -70.73283 29030 ft 296 kts 141°
2026-04-24 19:27 -14.75233 -70.71987 29020 ft 297 kts 142°
2026-04-24 19:27 -14.76874 -70.70689 29026 ft 297 kts 141°
2026-04-24 19:27 -14.78513 -70.69387 29024 ft 297 kts 142°
2026-04-24 19:28 -14.80156 -70.68086 29010 ft 298 kts 142°
2026-04-24 19:28 -14.81805 -70.66785 29010 ft 298 kts 141°
2026-04-24 19:28 -14.83432 -70.65498 29012 ft 299 kts 141°
2026-04-24 19:28 -14.84986 -70.64267 29002 ft 299 kts 141°
2026-04-24 19:29 -14.88146 -70.61757 29013 ft 299 kts 141°
2026-04-24 19:29 -14.89798 -70.60452 29013 ft 299 kts 141°
2026-04-24 19:29 -14.91450 -70.59145 29011 ft 299 kts 141°
2026-04-24 19:30 -14.93101 -70.57835 29019 ft 299 kts 141°
2026-04-24 19:30 -14.94751 -70.56525 29018 ft 299 kts 141°
2026-04-24 19:30 -14.96404 -70.55215 29016 ft 299 kts 141°
2026-04-24 19:30 -14.98016 -70.53939 29014 ft 300 kts 142°
2026-04-24 19:31 -14.99648 -70.52645 29009 ft 300 kts 141°
2026-04-24 19:31 -15.01300 -70.51332 29017 ft 299 kts 142°
2026-04-24 19:31 -15.02953 -70.50022 29015 ft 299 kts 142°
2026-04-24 19:31 -15.04603 -70.48712 29016 ft 299 kts 141°
2026-04-24 19:32 -15.06252 -70.47401 29027 ft 299 kts 141°
2026-04-24 19:32 -15.07900 -70.46094 29012 ft 298 kts 141°
2026-04-24 19:32 -15.09545 -70.44787 29008 ft 298 kts 142°
2026-04-24 19:32 -15.11170 -70.43497 29002 ft 298 kts 141°
2026-04-24 19:33 -15.12815 -70.42189 29008 ft 298 kts 141°
2026-04-24 19:33 -15.14463 -70.40879 28997 ft 299 kts 141°
2026-04-24 19:33 -15.16112 -70.39569 29009 ft 299 kts 141°
2026-04-24 19:33 -15.17761 -70.38257 29007 ft 299 kts 141°
2026-04-24 19:34 -15.19404 -70.36949 29016 ft 299 kts 141°
2026-04-24 19:34 -15.21055 -70.35643 29009 ft 299 kts 141°
2026-04-24 19:34 -15.22701 -70.34331 29019 ft 298 kts 141°
2026-04-24 19:34 -15.24345 -70.33020 29001 ft 298 kts 142°
2026-04-24 19:35 -15.25993 -70.31709 28996 ft 299 kts 141°
2026-04-24 19:35 -15.27621 -70.30414 28995 ft 299 kts 142°
2026-04-24 19:35 -15.29271 -70.29099 29000 ft 299 kts 141°
2026-04-24 19:35 -15.30922 -70.27784 29004 ft 300 kts 142°
2026-04-24 19:36 -15.32576 -70.26469 28991 ft 300 kts 141°
2026-04-24 19:36 -15.34228 -70.25152 29003 ft 299 kts 142°
2026-04-24 19:36 -15.35879 -70.23837 29002 ft 299 kts 141°
2026-04-24 19:36 -15.37530 -70.22521 29003 ft 299 kts 141°
2026-04-24 19:37 -15.39179 -70.21206 29004 ft 299 kts 141°
2026-04-24 19:37 -15.40802 -70.19912 28995 ft 297 kts 141°
2026-04-24 19:37 -15.42462 -70.18587 28996 ft 297 kts 142°
2026-04-24 19:37 -15.44078 -70.17302 29003 ft 297 kts 141°
2026-04-24 19:38 -15.45717 -70.15992 28999 ft 298 kts 141°
2026-04-24 19:38 -15.47387 -70.14724 29008 ft 298 kts 147°
2026-04-24 19:38 -15.49136 -70.13568 29004 ft 298 kts 146°
2026-04-24 19:38 -15.50869 -70.12382 29002 ft 299 kts 145°
2026-04-24 19:39 -15.52603 -70.11196 29003 ft 299 kts 145°
2026-04-24 19:39 -15.54343 -70.10019 29001 ft 299 kts 146°
2026-04-24 19:39 -15.56087 -70.08844 29013 ft 299 kts 145°
2026-04-24 19:39 -15.57803 -70.07681 29007 ft 299 kts 145°
2026-04-24 19:40 -15.59541 -70.06501 29015 ft 299 kts 145°
2026-04-24 19:40 -15.61279 -70.05322 29018 ft 299 kts 145°
2026-04-24 19:40 -15.63028 -70.04141 29016 ft 300 kts 146°
2026-04-24 19:41 -15.66534 -70.01765 29015 ft 301 kts 146°
2026-04-24 19:41 -15.70045 -69.99382 29024 ft 302 kts 146°
2026-04-24 19:42 -15.73548 -69.97007 29014 ft 303 kts 145°
2026-04-24 19:42 -15.77074 -69.94611 29019 ft 303 kts 146°
2026-04-24 19:43 -15.80610 -69.92214 29029 ft 304 kts 145°
2026-04-24 19:43 -15.84152 -69.89806 29027 ft 305 kts 146°
2026-04-24 19:44 -15.87680 -69.87413 29029 ft 305 kts 145°
2026-04-24 19:44 -15.91231 -69.84994 29029 ft 305 kts 146°
2026-04-24 19:45 -15.94784 -69.82580 29036 ft 306 kts 146°
2026-04-24 19:45 -15.98343 -69.80158 29036 ft 306 kts 146°
2026-04-24 19:46 -16.01881 -69.77749 29036 ft 306 kts 146°
2026-04-24 19:46 -16.05450 -69.75319 29040 ft 307 kts 145°
2026-04-24 19:47 -16.09029 -69.72881 29041 ft 308 kts 146°
2026-04-24 19:47 -16.12618 -69.70436 29041 ft 309 kts 146°
2026-04-24 19:48 -16.16178 -69.68007 29044 ft 308 kts 146°
2026-04-24 19:48 -16.21551 -69.64343 29047 ft 308 kts 145°
2026-04-24 19:49 -16.28677 -69.59475 29048 ft 307 kts 145°
2026-04-24 19:50 -16.35820 -69.54593 29054 ft 308 kts 146°
2026-04-24 19:51 -16.41192 -69.50922 29043 ft 308 kts 146°
2026-04-24 19:52 -16.46541 -69.47262 29039 ft 308 kts 146°
2026-04-24 19:52 -16.50121 -69.44808 29042 ft 308 kts 146°
2026-04-24 19:53 -16.53701 -69.42357 29038 ft 308 kts 146°
2026-04-24 19:54 -16.59068 -69.38678 29019 ft 308 kts 145°
2026-04-24 19:54 -16.62615 -69.36246 29018 ft 307 kts 146°
2026-04-24 19:55 -16.65586 -69.34208 29015 ft 307 kts 146°
2026-04-24 19:55 -16.69762 -69.31339 29007 ft 308 kts 146°
2026-04-24 19:56 -16.73339 -69.28884 29008 ft 308 kts 146°
2026-04-24 19:56 -16.76893 -69.26442 29008 ft 308 kts 146°
2026-04-24 19:57 -16.80474 -69.23981 28990 ft 308 kts 146°
2026-04-24 19:57 -16.84057 -69.21518 28990 ft 308 kts 146°
2026-04-24 19:58 -16.87666 -69.19103 28988 ft 309 kts 146°
2026-04-24 19:58 -16.91248 -69.16693 28989 ft 308 kts 146°
2026-04-24 19:59 -16.94851 -69.14269 28992 ft 308 kts 146°
2026-04-24 19:59 -16.98451 -69.11847 28977 ft 308 kts 146°
2026-04-24 20:00 -17.02053 -69.09422 28978 ft 308 kts 146°
2026-04-24 20:00 -17.05662 -69.06999 28979 ft 308 kts 146°
2026-04-24 20:01 -17.09244 -69.04590 28979 ft 309 kts 146°
2026-04-24 20:01 -17.12859 -69.02159 28976 ft 309 kts 146°
2026-04-24 20:02 -17.15866 -69.00135 28980 ft 309 kts 146°
2026-04-24 20:02 -17.20068 -68.97301 28980 ft 309 kts 146°
2026-04-24 20:03 -17.23673 -68.94843 28977 ft 309 kts 146°
2026-04-24 20:03 -17.25645 -68.93974 29004 ft 311 kts 169°
2026-04-24 20:03 -17.27810 -68.93834 28999 ft 313 kts 180°
2026-04-24 20:04 -17.32154 -68.94278 29003 ft 314 kts 187°
2026-04-24 20:04 -17.36493 -68.94880 28999 ft 315 kts 187°
2026-04-24 20:05 -17.40830 -68.95345 28990 ft 316 kts 184°
2026-04-24 20:05 -17.45209 -68.95736 28987 ft 316 kts 184°
2026-04-24 20:06 -17.49593 -68.96125 28985 ft 316 kts 184°
2026-04-24 20:06 -17.53981 -68.96515 28982 ft 316 kts 184°
2026-04-24 20:07 -17.57626 -68.96841 28990 ft 316 kts 184°
2026-04-24 20:07 -17.62725 -68.97300 28988 ft 316 kts 184°
2026-04-24 20:08 -17.67117 -68.97697 28990 ft 316 kts 184°
2026-04-24 20:08 -17.71499 -68.98094 29002 ft 316 kts 184°
2026-04-24 20:09 -17.75857 -68.98489 29002 ft 316 kts 184°
2026-04-24 20:09 -17.80245 -68.98890 29000 ft 316 kts 184°
2026-04-24 20:10 -17.84630 -68.99290 29011 ft 316 kts 184°
2026-04-24 20:10 -17.89013 -68.99691 29015 ft 316 kts 184°
2026-04-24 20:11 -17.93391 -69.00092 29027 ft 316 kts 184°
2026-04-24 20:11 -17.97735 -69.00486 29027 ft 316 kts 184°
2026-04-24 20:12 -18.02125 -69.00881 29029 ft 317 kts 184°
2026-04-24 20:12 -18.06517 -69.01277 29045 ft 316 kts 184°
2026-04-24 20:13 -18.10909 -69.01674 29046 ft 317 kts 185°
2026-04-24 20:13 -18.15274 -69.02070 29044 ft 317 kts 185°
2026-04-24 20:14 -18.19660 -69.02314 29042 ft 315 kts 172°
2026-04-24 20:14 -18.23910 -69.01236 29048 ft 314 kts 163°
2026-04-24 20:15 -18.28108 -68.99926 29045 ft 315 kts 161°
2026-04-24 20:15 -18.32076 -68.98088 29004 ft 313 kts 151°
2026-04-24 20:15 -18.33973 -68.96954 28901 ft 316 kts 148°
2026-04-24 20:16 -18.35880 -68.95746 28644 ft 324 kts 148°
2026-04-24 20:16 -18.37821 -68.94500 28393 ft 330 kts 148°
2026-04-24 20:16 -18.39755 -68.93172 28136 ft 334 kts 144°
2026-04-24 20:16 -18.41657 -68.91741 27886 ft 338 kts 143°
2026-04-24 20:17 -18.43562 -68.90274 27641 ft 340 kts 143°
2026-04-24 20:17 -18.47346 -68.87333 27143 ft 341 kts 143°
2026-04-24 20:17 -18.49252 -68.85849 26861 ft 340 kts 143°
2026-04-24 20:18 -18.50533 -68.84847 26700 ft 340 kts 143°
2026-04-24 20:18 -18.53047 -68.82875 26383 ft 340 kts 143°
2026-04-24 20:18 -18.54945 -68.81382 26146 ft 341 kts 143°
2026-04-24 20:18 -18.56844 -68.79887 25912 ft 341 kts 143°
2026-04-24 20:19 -18.58748 -68.78395 25680 ft 341 kts 143°
2026-04-24 20:19 -18.60656 -68.76906 25449 ft 341 kts 143°
2026-04-24 20:19 -18.62562 -68.75413 25219 ft 341 kts 143°
2026-04-24 20:19 -18.64465 -68.73917 24997 ft 341 kts 143°
2026-04-24 20:20 -18.66323 -68.72453 24942 ft 334 kts 143°
2026-04-24 20:20 -18.68165 -68.70991 24945 ft 328 kts 143°
2026-04-24 20:20 -18.69974 -68.69547 24939 ft 324 kts 142°
2026-04-24 20:20 -18.71760 -68.68124 24940 ft 320 kts 143°
2026-04-24 20:21 -18.73523 -68.66719 24944 ft 317 kts 143°
2026-04-24 20:21 -18.75277 -68.65321 24943 ft 315 kts 142°
2026-04-24 20:21 -18.77024 -68.63936 24943 ft 313 kts 143°
2026-04-24 20:21 -18.78762 -68.62557 24945 ft 312 kts 143°
2026-04-24 20:22 -18.80491 -68.61176 24958 ft 311 kts 142°
2026-04-24 20:22 -18.82216 -68.59802 24957 ft 310 kts 143°
2026-04-24 20:22 -18.83909 -68.58442 24931 ft 310 kts 142°
2026-04-24 20:22 -18.85619 -68.57064 24932 ft 309 kts 143°
2026-04-24 20:23 -18.87332 -68.55689 24935 ft 309 kts 142°
2026-04-24 20:23 -18.89047 -68.54315 24936 ft 309 kts 142°
2026-04-24 20:23 -18.90761 -68.52942 24944 ft 309 kts 142°
2026-04-24 20:23 -18.92475 -68.51572 24945 ft 309 kts 142°
2026-04-24 20:24 -18.93608 -68.50668 24944 ft 309 kts 143°
2026-04-24 20:24 -18.95897 -68.48832 24942 ft 308 kts 142°
2026-04-24 20:24 -18.97605 -68.47461 24944 ft 308 kts 142°
2026-04-24 20:24 -18.99284 -68.46111 24929 ft 308 kts 142°
2026-04-24 20:25 -19.00985 -68.44734 24931 ft 308 kts 142°
2026-04-24 20:25 -19.02686 -68.43359 24934 ft 308 kts 142°
2026-04-24 20:25 -19.04389 -68.41990 24932 ft 307 kts 143°
2026-04-24 20:25 -19.06089 -68.40619 24933 ft 307 kts 142°
2026-04-24 20:26 -19.07794 -68.39253 24932 ft 308 kts 143°
2026-04-24 20:26 -19.09498 -68.37883 24932 ft 308 kts 143°
2026-04-24 20:26 -19.11200 -68.36510 24932 ft 308 kts 142°
2026-04-24 20:26 -19.12879 -68.35154 24931 ft 308 kts 143°
2026-04-24 20:27 -19.14580 -68.33776 24935 ft 308 kts 142°
2026-04-24 20:27 -19.16276 -68.32390 24932 ft 308 kts 142°
2026-04-24 20:27 -19.17987 -68.31024 24934 ft 308 kts 145°
2026-04-24 20:27 -19.19759 -68.29757 24935 ft 308 kts 147°
2026-04-24 20:28 -19.21557 -68.28517 24931 ft 309 kts 147°
2026-04-24 20:28 -19.23361 -68.27284 24931 ft 309 kts 147°
2026-04-24 20:28 -19.25167 -68.26053 24932 ft 309 kts 147°
2026-04-24 20:28 -19.26974 -68.24822 24934 ft 309 kts 147°
2026-04-24 20:29 -19.28172 -68.24005 24936 ft 309 kts 147°
2026-04-24 20:29 -19.30565 -68.22379 24938 ft 309 kts 148°
2026-04-24 20:29 -19.32374 -68.21152 24936 ft 309 kts 147°
2026-04-24 20:29 -19.34175 -68.19913 24935 ft 309 kts 147°
2026-04-24 20:30 -19.35977 -68.18676 24938 ft 309 kts 147°
2026-04-24 20:30 -19.37777 -68.17441 24941 ft 308 kts 147°
2026-04-24 20:30 -19.39580 -68.16207 24941 ft 308 kts 147°
2026-04-24 20:30 -19.41381 -68.14973 24939 ft 308 kts 147°
2026-04-24 20:31 -19.43180 -68.13741 24937 ft 309 kts 147°
2026-04-24 20:31 -19.44981 -68.12500 24937 ft 309 kts 147°
2026-04-24 20:31 -19.46760 -68.11273 24938 ft 309 kts 147°
2026-04-24 20:31 -19.48561 -68.10027 24943 ft 309 kts 147°
2026-04-24 20:32 -19.50364 -68.08781 24941 ft 309 kts 147°
2026-04-24 20:32 -19.52168 -68.07533 24940 ft 310 kts 147°
2026-04-24 20:32 -19.53969 -68.06285 24940 ft 309 kts 147°
2026-04-24 20:32 -19.55770 -68.05037 24940 ft 309 kts 147°
2026-04-24 20:33 -19.57572 -68.03788 24946 ft 309 kts 147°
2026-04-24 20:33 -19.59375 -68.02540 24943 ft 310 kts 147°
2026-04-24 20:33 -19.61155 -68.01305 24946 ft 310 kts 147°
2026-04-24 20:33 -19.62963 -68.00055 24947 ft 310 kts 147°
2026-04-24 20:34 -19.64771 -67.98805 24945 ft 310 kts 147°
2026-04-24 20:34 -19.66578 -67.97554 24943 ft 310 kts 147°
2026-04-24 20:34 -19.68381 -67.96304 24944 ft 310 kts 147°
2026-04-24 20:34 -19.70187 -67.95050 24942 ft 310 kts 147°
2026-04-24 20:35 -19.71992 -67.93797 24955 ft 310 kts 148°
2026-04-24 20:35 -19.73792 -67.92534 24956 ft 310 kts 147°
2026-04-24 20:35 -19.75588 -67.91265 24954 ft 310 kts 147°
2026-04-24 20:35 -19.77383 -67.89991 24956 ft 310 kts 147°
2026-04-24 20:36 -19.79154 -67.88734 24959 ft 310 kts 147°
2026-04-24 20:36 -19.80949 -67.87458 24957 ft 310 kts 147°
2026-04-24 20:36 -19.82744 -67.86182 24957 ft 310 kts 147°
2026-04-24 20:36 -19.84539 -67.84904 24961 ft 311 kts 147°
2026-04-24 20:37 -19.86333 -67.83627 24958 ft 311 kts 147°
2026-04-24 20:37 -19.88129 -67.82348 24956 ft 311 kts 147°
2026-04-24 20:37 -19.89925 -67.81069 24958 ft 311 kts 147°
2026-04-24 20:37 -19.91721 -67.79789 24962 ft 311 kts 147°
2026-04-24 20:38 -19.93518 -67.78509 24962 ft 311 kts 147°
2026-04-24 20:38 -19.95287 -67.77248 24965 ft 311 kts 147°
2026-04-24 20:38 -19.97085 -67.75966 24964 ft 311 kts 147°
2026-04-24 20:38 -19.98883 -67.74685 24965 ft 311 kts 147°
2026-04-24 20:39 -20.00680 -67.73402 24965 ft 311 kts 147°
2026-04-24 20:39 -20.02476 -67.72108 24965 ft 312 kts 147°
2026-04-24 20:39 -20.04275 -67.70809 24966 ft 313 kts 147°
2026-04-24 20:39 -20.06078 -67.69507 24974 ft 313 kts 147°
2026-04-24 20:40 -20.07273 -67.68642 24977 ft 314 kts 147°
2026-04-24 20:40 -20.09663 -67.66918 24971 ft 314 kts 147°
2026-04-24 20:40 -20.11471 -67.65616 24969 ft 314 kts 147°
2026-04-24 20:40 -20.13279 -67.64311 24969 ft 314 kts 147°
2026-04-24 20:41 -20.15086 -67.63003 24971 ft 314 kts 147°
2026-04-24 20:41 -20.16770 -67.61535 24958 ft 315 kts 130°
2026-04-24 20:41 -20.17811 -67.59499 24965 ft 314 kts 110°
2026-04-24 20:41 -20.18193 -67.57223 24964 ft 313 kts 90°
2026-04-24 20:42 -20.18060 -67.55698 24970 ft 312 kts 79°
2026-04-24 20:42 -20.17431 -67.52718 24972 ft 312 kts 77°
2026-04-24 20:42 -20.16970 -67.50460 24972 ft 312 kts 78°
2026-04-24 20:42 -20.16533 -67.48200 24971 ft 313 kts 78°
2026-04-24 20:43 -20.16085 -67.45923 24836 ft 318 kts 77°
2026-04-24 20:43 -20.15619 -67.43594 24614 ft 325 kts 78°
2026-04-24 20:43 -20.15308 -67.42024 24473 ft 329 kts 78°
2026-04-24 20:43 -20.14833 -67.39627 24253 ft 333 kts 78°
2026-04-24 20:44 -20.14350 -67.37203 24039 ft 337 kts 78°
2026-04-24 20:44 -20.13863 -67.34757 23824 ft 339 kts 78°
2026-04-24 20:44 -20.13212 -67.31499 23532 ft 341 kts 78°
2026-04-24 20:44 -20.12878 -67.29833 23357 ft 342 kts 78°
2026-04-24 20:45 -20.12384 -67.27350 23095 ft 342 kts 78°
2026-04-24 20:45 -20.11888 -67.24875 22833 ft 343 kts 78°
2026-04-24 20:45 -20.11397 -67.22424 22586 ft 343 kts 78°
2026-04-24 20:45 -20.10900 -67.19942 22332 ft 343 kts 78°
2026-04-24 20:46 -20.10402 -67.17461 22084 ft 343 kts 78°
2026-04-24 20:46 -20.09904 -67.14983 21839 ft 342 kts 78°
2026-04-24 20:46 -20.09408 -67.12510 21591 ft 342 kts 78°
2026-04-24 20:46 -20.08911 -67.10041 21344 ft 341 kts 78°
2026-04-24 20:47 -20.08414 -67.07577 21097 ft 340 kts 78°
2026-04-24 20:47 -20.07920 -67.05119 20855 ft 340 kts 78°
2026-04-24 20:47 -20.07645 -67.02671 20640 ft 338 kts 93°
2026-04-24 20:47 -20.08090 -67.00253 20447 ft 331 kts 110°
2026-04-24 20:48 -20.09148 -66.98118 20238 ft 324 kts 128°
2026-04-24 20:48 -20.10711 -66.96431 20029 ft 318 kts 146°
2026-04-24 20:48 -20.12623 -66.95310 19824 ft 313 kts 162°
2026-04-24 20:48 -20.14679 -66.94592 19598 ft 310 kts 165°
2026-04-24 20:49 -20.16728 -66.93875 19371 ft 310 kts 165°
2026-04-24 20:49 -20.18772 -66.93162 19144 ft 309 kts 165°
2026-04-24 20:49 -20.20813 -66.92457 18918 ft 308 kts 165°
2026-04-24 20:49 -20.22739 -66.91532 18658 ft 312 kts 148°
2026-04-24 20:50 -20.24291 -66.89911 18400 ft 315 kts 128°
2026-04-24 20:50 -20.25255 -66.87814 18120 ft 318 kts 107°
2026-04-24 20:50 -20.25504 -66.85490 17824 ft 317 kts 87°
2026-04-24 20:50 -20.25415 -66.83151 17580 ft 316 kts 91°
2026-04-24 20:51 -20.25589 -66.80823 17343 ft 315 kts 98°
2026-04-24 20:51 -20.25989 -66.78540 17106 ft 314 kts 104°
2026-04-24 20:51 -20.26620 -66.76321 16875 ft 312 kts 111°
2026-04-24 20:51 -20.27469 -66.74193 16635 ft 312 kts 118°
2026-04-24 20:52 -20.28533 -66.72187 16407 ft 310 kts 124°
2026-04-24 20:52 -20.29763 -66.70344 16178 ft 308 kts 130°
2026-04-24 20:52 -20.31176 -66.68648 15938 ft 304 kts 138°
2026-04-24 20:52 -20.32736 -66.67150 15712 ft 301 kts 143°
2026-04-24 20:53 -20.34409 -66.65827 15484 ft 298 kts 150°
2026-04-24 20:53 -20.36190 -66.64721 15257 ft 294 kts 156°
2026-04-24 20:53 -20.38040 -66.63818 15027 ft 292 kts 162°
2026-04-24 20:53 -20.39951 -66.63132 14805 ft 288 kts 168°
2026-04-24 20:54 -20.41887 -66.62668 14583 ft 283 kts 175°
2026-04-24 20:54 -20.43811 -66.62381 14493 ft 275 kts 180°
2026-04-24 20:54 -20.45670 -66.62330 14492 ft 269 kts 185°
2026-04-24 20:54 -20.47524 -66.62454 14493 ft 266 kts 191°
2026-04-24 20:55 -20.49334 -66.62760 14494 ft 259 kts 197°
2026-04-24 20:55 -20.51060 -66.63221 14498 ft 253 kts 202°
2026-04-24 20:55 -20.52707 -66.63832 14489 ft 248 kts 205°
2026-04-24 20:55 -20.54276 -66.64581 14416 ft 246 kts 214°
2026-04-24 20:56 -20.55429 -66.65837 14320 ft 236 kts 248°
2026-04-24 20:56 -20.55597 -66.67532 14240 ft 234 kts 284°
2026-04-24 20:56 -20.54765 -66.68968 14190 ft 231 kts 317°
2026-04-24 20:56 -20.53556 -66.69982 14180 ft 212 kts 320°
2026-04-24 20:57 -20.52512 -66.71001 14163 ft 198 kts 309°
2026-04-24 20:57 -20.51731 -66.72186 14130 ft 192 kts 300°
2026-04-24 20:57 -20.51082 -66.73386 14107 ft 185 kts 300°
2026-04-24 20:57 -20.50436 -66.74548 13920 ft 175 kts 300°
2026-04-24 20:58 -20.49831 -66.75626 13722 ft 165 kts 300°
2026-04-24 20:58 -20.49255 -66.76645 13512 ft 158 kts 300°
2026-04-24 20:58 -20.48689 -66.77647 13300 ft 157 kts 300°
2026-04-24 20:58 -20.48137 -66.78626 13102 ft 155 kts 300°
2026-04-24 20:59 -20.47583 -66.79606 12885 ft 154 kts 300°
2026-04-24 20:59 -20.47037 -66.80558 12713 ft 147 kts 300°
2026-04-24 20:59 -20.46522 -66.81471 12581 ft 142 kts 300°
2026-04-24 20:59 -20.46009 -66.82383 12447 ft 144 kts 298°
2026-04-24 21:00 -20.45519 -66.83278 12294 ft 135 kts 300°
2026-04-24 21:00 -20.45089 -66.84046 12116 ft 107 kts 298°
2026-04-24 21:00 -20.44744 -66.84633 12015 ft 81 kts 294°
2026-04-24 21:00 -20.44517 -66.85013 12012 ft 40 kts 302°
2026-04-24 21:01 -20.44485 -66.85118 12014 ft 15 kts 133°
2026-04-24 21:01 -20.44566 -66.84964 12012 ft 32 kts 117°
2026-04-24 21:01 -20.44576 -66.84747 12013 ft 28 kts 78°
2026-04-24 21:01 -20.44588 -66.84580 12015 ft 19 kts 133°
2026-04-24 21:02 -20.44664 -66.84447 12017 ft 20 kts 87°
2026-04-24 21:02 -20.44606 -66.84385 12017 ft 9 kts 339°
2026-04-24 21:02 -20.44549 -66.84370 12017 ft 8 kts 38°
2026-04-24 21:02 -20.44548 -66.84353 12016 ft 0 kts 139°